Regional Weather Roundup
Issued by NWS

Home | Current Version | Previous Version | Text Only | Print | Product List | Glossary On
Versions: 1 2 3 4 5 6 7 8 9 10 11 12 13 14 15 16 17 18 19 20 21 22 23 24 25 26 27 28 29 30 31 32 33 34 35 36 37 38 39 40 41 42 43 44 45 46 47 48 49 50
000
ASUS44 KMEG 251210
RWRTN
TENNESSEE HOURLY STATE WEATHER ROUNDUP
NATIONAL WEATHER SERVICE MEMPHIS TN
700 AM CDT MON SEP 25 2017

TNZ002-004-019-021-049-052-054-088>092-251300-
WEST TENNESSEE

CITY           SKY/WX    TMP DP  RH WIND       PRES   REMARKS
MEMPHIS INTL   PTCLDY    71  66  84 CALM      30.00R
NWS MEMPHIS      N/A     68 N/A N/A MISG        N/A
JACKSON        PTCLDY    64  64 100 CALM      30.03R FOG
DYERSBURG      CLEAR     65  65 100 CALM      30.03R
SOMERVILLE     CLEAR     66  64  94 CALM      30.00S FOG
COVINGTON      CLEAR     63  63 100 CALM      30.02R FOG
BOLIVAR        CLEAR     63  63 100 CALM      30.02R FOG
PARIS          CLEAR     64  64 100 CALM      30.02R FOG
HUNTINGDON     CLEAR     64  64 100 CALM      30.02R
LEXINGTON      CLEAR     63  63 100 CALM      30.03R FOG
SELMER         CLEAR     64  63  94 CALM      30.02S FOG
SAVANNAH       CLEAR     63  63 100 CALM      30.02R
$$

TNZ008-025-027-028-033-062-065-066-251300-
NORTH MIDDLE TENNESSEE

CITY           SKY/WX    TMP DP  RH WIND       PRES   REMARKS
NASHVILLE      PTCLDY    66  64  93 CALM      30.05R FOG
PORTLAND       CLEAR     64  64 100 CALM      30.05R
CLARKSVILLE    FOG       65  63  93 CALM      30.04R VSB<1/4
SMYRNA         CLEAR     71  68  92 CALM      30.06
COOKEVILLE     CLEAR     57  57 100 CALM      30.06S
GALLATIN       CLEAR     64  63  94 CALM      30.07R
CROSSVILLE     PTCLDY    59  58  96 CALM      30.11R FOG
$$

TNZ061-075-076-078-094-096-097-251300-
SOUTH MIDDLE TENNESSEE

CITY           SKY/WX    TMP DP  RH WIND       PRES   REMARKS
FAYETTEVILLE   MOCLDY    66  64  94 CALM      30.05R
TULLAHOMA      PTCLDY    61  59  94 CALM      30.07S
WINCHESTER     MOCLDY    63  61  94 CALM      30.07R
MCMINNVILLE    PTCLDY    61  61 100 CALM      30.07R
COLUMBIA       CLEAR     64 N/A N/A CALM      30.03R HAZE
SHELBYVILLE    CLEAR     63  63 100 CALM      30.05R FOG
$$

TNZ017-018-042-046-047-251300-
NORTHEAST TENNESSEE

CITY           SKY/WX    TMP DP  RH WIND       PRES   REMARKS
TRI CITIES     MOCLDY    59  58  96 CALM      30.11R
ELIZABETHTON   MOCLDY    59  59 100 CALM      30.12R
$$

TNZ012-013-036-069-073-074-251300-
CENTRAL EAST TENNESSEE

CITY           SKY/WX    TMP DP  RH WIND       PRES   REMARKS
KNOXVILLE      CLOUDY    64  61  90 NE3       30.07R
OAK RIDGE      CLOUDY    64  62  93 CALM      30.08R
DOWNTOWN KNOXV CLEAR     64  64 100 CALM      30.07R FOG
GATLINBURG     CLEAR     57  57 100 CALM      30.08R
MORRISTOWN     CLEAR     66  57  72 CALM      30.08R
JACKSBORO      FOG       61  61 100 CALM      30.12R VSB 1/2
$$

TNZ083-085-099-251300-
SOUTHEAST TENNESSEE

CITY           SKY/WX    TMP DP  RH WIND       PRES   REMARKS
CHATTANOOGA    MOCLDY    66  64  93 CALM      30.05R
DAYTON         FOG       64  64 100 CALM      30.05S VSB 0
$$

SKY/WX REPORTED AS FAIR MEANS FEW OR NO CLOUDS BELOW
12 THOUSAND FEET.




USA.gov is the U.S. government's official web portal to all federal, state and local government web resources and services.